[[{"header":{"parameterUnit":"m.s-1","parameterCategory":1,"la1":30.2991,"la2":30.254,"lo1":-89.0895,"lo2":-89.0444,"dy":0.0017,"dx":0.0017,"nx":28,"ny":28,"refTime":"2025-08-01T21:00:00:Z","depth":0,"parameterNumber":2,"parameterNumberName":"U-component_of_WINDS"},"data":[0,0,0,0,0,0,0,0,0,0,0,0,0,0,0,0,0,0,0,0,0,0,0,0,0,0,0,0,0,0,0,0,0,0,0,0,0,0,0,0,0,0,0,0,0,0,0,0,0,0,0,0,0,0,0,0,0,0,2.9021,2.9022,0,2.9116,2.9117,2.9118,2.9102,2.91,2.9098,2.9097,2.9198,2.9202,2.9206,0,0,0,0,0,0,0,0,0,0,0,0,0,2.8832,2.8836,2.9021,2.9023,2.9024,2.9116,2.9117,2.9118,2.9102,2.91,2.9098,2.9096,2.9196,2.9201,2.9207,0,0,0,0,0,0,0,0,0,0,0,0,0,2.8919,2.8837,2.9021,2.9027,2.9028,2.9115,2.9117,2.9119,2.9102,2.91,2.9097,2.9095,2.9195,2.9201,2.9207,2.9296,0,0,2.9227,2.9229,0,0,0,0,0,0,0,0,2.8914,2.8926,2.9025,2.9026,2.9028,2.9094,2.9087,2.9178,2.9103,2.9074,2.9097,2.9094,2.9166,2.9174,2.9198,2.9301,2.9305,2.9227,2.9231,2.9234,2.9236,0,0,0,0,0,0,0,2.8908,2.8922,2.9059,2.9026,2.9028,2.9026,2.9036,2.9104,2.9133,2.9077,2.9076,2.9087,2.9166,2.9192,2.92,2.9307,2.9227,2.9233,2.9237,2.9239,2.949,2.9493,0,0,0,0,0,0,2.89,2.8917,2.9056,2.9062,2.8964,2.9031,2.9042,2.9076,2.9132,2.9138,2.9089,2.9086,2.9182,2.9192,2.9203,2.9313,2.9234,2.924,2.9243,2.9488,2.9491,2.9494,0,0,0,0,0,0,2.8896,2.8913,2.9052,2.8989,2.9007,2.9037,2.9075,2.9079,2.9104,2.9141,2.9147,2.9109,2.918,2.9194,2.9274,2.9316,2.9243,2.9248,2.9484,2.9489,2.9493,2.9531,0,0,0,0,0,0,2.8891,2.8911,2.8944,2.899,2.901,2.9119,2.9078,2.9083,2.9115,2.9111,2.9162,2.9168,2.9179,2.9264,2.928,2.9323,2.9253,2.9481,2.9486,2.9491,2.9526,2.9536,2.9545,0,0,0,0,0,2.8884,2.8952,2.8946,2.8963,2.9052,2.9122,2.9133,2.9144,2.9118,2.9152,2.9177,2.9166,2.9309,2.9272,2.929,2.9336,2.9478,2.9485,2.9491,2.9522,2.9535,2.9545,0,0,0,0,0,0,2.8911,2.8958,2.8952,2.9036,2.9075,2.9119,2.9162,2.9156,2.9204,2.9199,2.9212,2.9224,2.9304,2.9328,2.9287,2.9426,2.939,2.94,2.9408,2.942,2.9429,2.9422,2.9259,0,0,0,0,0,2.8927,2.8978,2.9017,2.9087,2.9107,2.9131,2.9162,2.9167,2.9208,2.9225,2.9255,2.9297,2.9351,2.9387,2.9438,2.953,2.9542,2.957,2.9579,2.9587,2.9596,2.9648,2.9662,2.9515,2.9515,2.9515,0,0,2.896,2.8992,2.9024,2.9094,2.9124,2.9179,2.9145,2.9204,2.9245,2.9234,2.9311,2.9334,2.9382,2.9468,2.9507,2.949,2.9639,2.9595,2.9601,2.9606,2.9656,2.967,2.9682,2.952,2.9519,2.9518,0,0,2.9048,2.9077,2.914,2.9171,2.9217,2.9233,2.9248,2.9294,2.9308,2.9385,2.9378,2.9429,2.9521,2.9556,2.9586,2.9689,2.9682,2.9705,2.9754,2.9805,2.9816,2.9827,2.9865,2.9878,2.9714,2.9714,2.9714,0,2.9084,2.9165,2.9173,2.9233,2.9265,2.9256,2.9321,2.9352,2.9414,2.9437,2.9416,2.9533,2.9565,2.9659,2.9685,2.9708,2.9728,2.97,2.9814,2.9824,2.9834,2.9871,2.9885,2.9717,2.9717,2.9716,2.9716,0,2.9207,2.9263,2.9309,2.9368,2.9405,2.9467,2.9486,2.9523,2.9525,2.9544,2.9623,2.9661,2.9721,2.9743,2.9746,2.9839,2.9827,2.981,2.9774,2.985,2.9885,2.9899,2.9721,2.972,2.9719,2.9718,0,0,2.9315,2.9378,2.9395,2.9422,2.9473,2.9518,2.9581,2.9638,2.967,2.9713,2.9768,2.9847,2.9832,2.9865,2.9872,2.9916,2.9998,2.9894,2.9895,2.9913,3.0105,3.0118,3.0134,2.9993,2.9996,2.9998,3.0101,0,2.941,2.9519,2.9529,2.9628,2.9681,2.9674,2.9729,2.9767,2.9787,2.9836,2.9858,2.9914,2.9889,2.991,2.9953,2.9979,3.0037,2.9971,3.0046,3.0048,3.0035,3.0152,3.0166,3.0262,3.0115,3.0117,3.0119,0,2.9534,2.958,2.9684,2.9729,2.9752,2.9801,2.9855,2.9901,2.9946,2.9957,2.9995,2.9996,3.0063,3.0024,3.0117,3.0072,3.0104,3.0121,3.0125,3.0133,3.0089,3.0165,3.0293,3.0307,3.014,3.0138,3.0137,0,2.9605,2.9693,2.9766,2.979,2.9844,2.9879,2.9903,2.9944,2.9979,3.0027,3.005,3.0106,3.0137,3.0181,3.0198,3.0167,3.0291,3.0252,3.0304,3.0303,3.0331,3.0329,3.0466,3.0349,3.0349,3.0348,3.0348,0,2.971,2.9774,2.9799,2.9844,2.9917,2.9928,3.0,3.0023,3.0061,3.0112,3.011,3.0158,3.0177,3.023,3.0243,3.032,3.0333,3.0346,3.0349,3.0347,3.0345,3.0368,3.0362,3.0352,3.0351,3.0351,3.035,0,2.9801,2.982,2.99,2.9944,2.9957,3.0009,3.0048,3.0093,3.0111,3.0177,3.0193,3.0223,3.0284,3.0305,3.038,3.039,3.0479,3.0476,3.0464,3.0465,3.0515,3.0511,3.0673,3.0696,3.0562,3.0563,3.0564,0,2.9867,2.9916,2.9966,2.9999,3.0025,3.0079,3.0114,3.0128,3.0165,3.022,3.0259,3.0319,3.0369,3.0468,3.0498,3.0555,3.0555,3.0608,3.0563,3.056,3.0557,3.0555,3.056,3.0616,3.0618,3.0619,3.062,0,2.9983,2.999,3.004,3.0094,3.0136,3.0179,3.0221,3.0249,3.027,3.0312,3.0374,3.0412,3.0488,3.055,3.0609,3.0636,3.0632,3.0633,3.0648,3.0647,3.0639,3.0645,3.0488,3.063,3.0629,3.0628,3.0627,3.0627,3.0065,3.0109,3.0151,3.0207,3.024,3.0279,3.0324,3.0348,3.04,3.0462,3.0468,3.0536,3.0581,3.0659,3.0689,3.0744,3.0729,3.0751,3.0757,3.0762,3.0767,3.0629,3.0755,3.0754,3.0754,3.0754,3.0754,0,3.0182,3.0209,3.026,3.0319,3.0364,3.0354,3.0401,3.0439,3.0499,3.054,3.0588,3.0661,3.0721,3.0755,3.0815,3.0852,3.0852,3.0868,3.0866,3.0873,3.0775,3.0757,3.0867,3.0867,3.0867,3.0867,3.0867,3.0867,3.0248,3.0323,3.0335,3.0427,3.0453,3.0519,3.0546,3.0583,3.0616,3.0697,3.0746,3.0768,3.0807,3.087,3.0925,3.0934,3.0957,3.0974,3.0982,3.0891,3.0879,3.0868,3.0851,3.0979,3.0979,3.1075,3.1076,3.1076]},{"header":{"parameterUnit":"m.s-1","parameterCategory":1,"la1":30.2991,"la2":30.254,"lo1":-89.0895,"lo2":-89.0444,"dy":0.0017,"dx":0.0017,"nx":28,"ny":28,"refTime":"2025-08-01T21:00:00:Z","depth":0,"parameterNumber":3,"parameterNumberName":"V-component_of_WINDS"},"data":[0,0,0,0,0,0,0,0,0,0,0,0,0,0,0,0,0,0,0,0,0,0,0,0,0,0,0,0,0,0,0,0,0,0,0,0,0,0,0,0,0,0,0,0,0,0,0,0,0,0,0,0,0,0,0,0,0,0,1.715,1.715,0,1.7155,1.7155,1.7156,1.7155,1.7155,1.7154,1.7154,1.7159,1.716,1.716,0,0,0,0,0,0,0,0,0,0,0,0,0,1.7137,1.7138,1.715,1.715,1.715,1.7155,1.7155,1.7156,1.7155,1.7155,1.7154,1.7154,1.7159,1.716,1.716,0,0,0,0,0,0,0,0,0,0,0,0,0,1.7143,1.7138,1.715,1.715,1.715,1.7155,1.7155,1.7156,1.7155,1.7155,1.7154,1.7154,1.7159,1.716,1.716,1.7165,0,0,1.7161,1.7161,0,0,0,0,0,0,0,0,1.7143,1.7143,1.715,1.715,1.715,1.7154,1.7153,1.7159,1.7155,1.7153,1.7154,1.7154,1.7158,1.7158,1.7159,1.7165,1.7165,1.7161,1.7161,1.7161,1.7161,0,0,0,0,0,0,0,1.7142,1.7143,1.7152,1.715,1.715,1.715,1.715,1.7154,1.7156,1.7153,1.7153,1.7154,1.7158,1.7159,1.716,1.7165,1.7161,1.7161,1.7161,1.7161,1.7174,1.7174,0,0,0,0,0,0,1.7142,1.7143,1.7152,1.7152,1.7146,1.715,1.7151,1.7153,1.7156,1.7156,1.7154,1.7154,1.7159,1.7159,1.716,1.7165,1.7161,1.7162,1.7162,1.7174,1.7174,1.7174,0,0,0,0,0,0,1.7142,1.7143,1.7152,1.7147,1.7149,1.715,1.7153,1.7153,1.7155,1.7157,1.7157,1.7155,1.7159,1.7159,1.7163,1.7165,1.7162,1.7162,1.7174,1.7174,1.7174,1.7176,0,0,0,0,0,0,1.7141,1.7143,1.7145,1.7148,1.7149,1.7155,1.7153,1.7153,1.7155,1.7155,1.7158,1.7158,1.7159,1.7163,1.7164,1.7166,1.7162,1.7174,1.7174,1.7174,1.7176,1.7176,1.7177,0,0,0,0,0,1.7141,1.7145,1.7145,1.7146,1.7152,1.7156,1.7156,1.7157,1.7156,1.7157,1.7159,1.7158,1.7165,1.7163,1.7164,1.7166,1.7173,1.7174,1.7174,1.7176,1.7176,1.7177,0,0,0,0,0,0,1.7143,1.7146,1.7145,1.7151,1.7153,1.7155,1.7158,1.7158,1.716,1.716,1.716,1.7161,1.7165,1.7166,1.7164,1.7171,1.7169,1.7169,1.717,1.717,1.7171,1.717,1.7162,0,0,0,0,0,1.7144,1.7147,1.7149,1.7154,1.7155,1.7156,1.7158,1.7158,1.716,1.7161,1.7163,1.7165,1.7167,1.7169,1.7171,1.7176,1.7176,1.7178,1.7178,1.7179,1.7179,1.7181,1.7182,1.7175,1.7175,1.7175,0,0,1.7146,1.7148,1.715,1.7154,1.7156,1.7159,1.7157,1.716,1.7162,1.7162,1.7166,1.7167,1.7169,1.7173,1.7175,1.7174,1.7181,1.7179,1.7179,1.718,1.7181,1.7182,1.7182,1.7175,1.7175,1.7175,0,0,1.7151,1.7153,1.7157,1.7158,1.7161,1.7162,1.7163,1.7165,1.7166,1.717,1.7169,1.7171,1.7176,1.7177,1.7179,1.7184,1.7183,1.7184,1.7187,1.7189,1.7189,1.719,1.7191,1.7192,1.7185,1.7185,1.7185,0,1.7153,1.7158,1.7159,1.7162,1.7164,1.7163,1.7167,1.7168,1.7171,1.7172,1.7171,1.7177,1.7178,1.7182,1.7183,1.7185,1.7185,1.7184,1.7189,1.7189,1.719,1.7191,1.7192,1.7185,1.7185,1.7185,1.7185,0,1.716,1.7163,1.7166,1.7169,1.7171,1.7174,1.7175,1.7177,1.7177,1.7178,1.7181,1.7183,1.7185,1.7187,1.7187,1.7191,1.719,1.7189,1.7187,1.7191,1.7192,1.7192,1.7185,1.7185,1.7185,1.7185,0,0,1.7167,1.717,1.7171,1.7172,1.7175,1.7177,1.718,1.7183,1.7184,1.7186,1.7188,1.7192,1.7191,1.7192,1.7192,1.7194,1.7197,1.7193,1.7193,1.7193,1.7201,1.7202,1.7202,1.7197,1.7197,1.7197,1.7201,0,1.7172,1.7178,1.7178,1.7183,1.7186,1.7185,1.7188,1.7189,1.719,1.7192,1.7192,1.7195,1.7194,1.7194,1.7196,1.7197,1.7199,1.7196,1.7199,1.7199,1.7198,1.7203,1.7204,1.7207,1.7202,1.7202,1.7202,0,1.7179,1.7181,1.7187,1.7188,1.7189,1.7192,1.7194,1.7196,1.7197,1.7198,1.7199,1.7199,1.7201,1.7199,1.7203,1.7201,1.7202,1.7202,1.7202,1.7202,1.72,1.7203,1.7209,1.7209,1.7203,1.7202,1.7202,0,1.7183,1.7187,1.7191,1.7192,1.7194,1.7195,1.7196,1.7198,1.7199,1.7201,1.7201,1.7203,1.7204,1.7206,1.7206,1.7205,1.7209,1.7207,1.7209,1.7209,1.721,1.721,1.7215,1.7211,1.7211,1.7211,1.7211,0,1.7189,1.7192,1.7192,1.7195,1.7198,1.7198,1.7201,1.7202,1.7203,1.7205,1.7204,1.7206,1.7206,1.7208,1.7208,1.721,1.7211,1.7211,1.7211,1.7211,1.7211,1.7211,1.7211,1.7211,1.7211,1.7211,1.7211,0,1.7194,1.7194,1.7198,1.7199,1.72,1.7202,1.7203,1.7205,1.7205,1.7208,1.7208,1.7209,1.7211,1.7211,1.7213,1.7213,1.7216,1.7216,1.7216,1.7216,1.7217,1.7217,1.7223,1.7224,1.7219,1.7219,1.7219,0,1.7197,1.7199,1.7201,1.7202,1.7203,1.7205,1.7207,1.7207,1.7208,1.721,1.7211,1.7213,1.7214,1.7217,1.7218,1.7219,1.7219,1.7221,1.7219,1.7219,1.7219,1.7218,1.7219,1.7221,1.7222,1.7222,1.7222,0,1.7203,1.7203,1.7205,1.7207,1.7208,1.721,1.7211,1.7212,1.7212,1.7214,1.7216,1.7217,1.7219,1.7221,1.7222,1.7223,1.7222,1.7222,1.7223,1.7222,1.7222,1.7222,1.7216,1.7222,1.7222,1.7222,1.7222,1.7222,1.7207,1.7209,1.721,1.7212,1.7213,1.7214,1.7216,1.7216,1.7218,1.722,1.722,1.7222,1.7223,1.7225,1.7225,1.7227,1.7226,1.7227,1.7227,1.7227,1.7227,1.7222,1.7227,1.7227,1.7227,1.7227,1.7227,0,1.7213,1.7213,1.7215,1.7217,1.7218,1.7218,1.7219,1.722,1.7222,1.7223,1.7224,1.7226,1.7228,1.7228,1.723,1.7231,1.723,1.7231,1.7231,1.7231,1.7228,1.7227,1.7231,1.7231,1.7231,1.7231,1.7231,1.7231,1.7216,1.7218,1.7219,1.7222,1.7222,1.7224,1.7225,1.7226,1.7227,1.7229,1.723,1.723,1.7231,1.7232,1.7234,1.7234,1.7234,1.7235,1.7235,1.7232,1.7231,1.7231,1.723,1.7235,1.7235,1.7238,1.7238,1.7238]}]]